Location: Dunedin
(45.8670°S, 170.5000°E)
Time: 16:33:01
(UTC+12:00)

IGS 5A - Pass Details

Date: 24 January 2019
Orbit: 585 x 588 km, 97.7° (Epoch: 19 April)

Event Time Altitude Azimuth Distance (km) Brightness Sun altitude
Rises 23:33:12 0° 158° (SSE) 2,856 7.5 -17.9°
Reaches altitude 10° 23:35:35 10° 148° (SSE) 1,946 6.4 -18.1°
Maximum altitude 23:39:22 32° 84° (E) 1,041 4.4 -18.5°
Enters shadow 23:39:36 31° 77° (ENE) 1,045 4.3 -18.5°
